Overview Statistics Trail Chart Weather Telemetry Raw packets
 

This is the latest recevied weather packets stored in our database for station/object SV9TNF-51. If no packets are shown the sender has not sent any weather packets the latest 10 day(s).

<< 10 11 12 13 14 15 16 >>
Time Temp. Humidity Pressure Rain* Wind** Luminosity Snow
1788584554 25.56° C 58% 1013.2 hPa 0 mm 2.68 m/s, 185° - -
1788584254 25.56° C 58% 1013.2 hPa 0 mm 1.34 m/s, 149° - -
1788583953 25.56° C 57% 1013.2 hPa 0 mm 3.13 m/s, 167° - -
1788583653 25.56° C 58% 1013.2 hPa 0 mm 3.58 m/s, 10° - -
1788583354 25.56° C 59% 1013.2 hPa 0 mm 2.24 m/s, 171° - -
1788583053 25.56° C 58% 1013.2 hPa 0 mm 2.68 m/s, 100° - -
1788582754 25.56° C 59% 1013.2 hPa 0 mm 6.26 m/s, 312° - -
1788582453 25.56° C 59% 1013.2 hPa 0 mm 2.68 m/s, 82° - -
1788582153 25.56° C 59% 1012.5 hPa 0 mm 4.47 m/s, 17° - -
1788581853 25.56° C 59% 1012.5 hPa 0 mm 3.13 m/s, 348° - -
1788581553 25.56° C 59% 1012.5 hPa 0 mm 3.13 m/s, 86° - -
1788581253 25.56° C 59% 1012.2 hPa 0 mm 3.13 m/s, 161° - -
1788580952 25.56° C 60% 1012.2 hPa 0 mm 8.49 m/s, 324° - -
1788580653 25.56° C 60% 1012.2 hPa 0 mm 1.34 m/s, 136° - -
1788580352 25.56° C 60% 1012.2 hPa 0 mm 3.13 m/s, 95° - -
1788580052 25° C 61% 1012.2 hPa 0 mm 1.79 m/s, 179° - -
1788579752 25° C 61% 1012.2 hPa 0 mm 2.68 m/s, 79° - -
1788579452 25° C 61% 1012.2 hPa 0 mm 3.13 m/s, 206° - -
1788579152 25° C 60% 1012.2 hPa 0 mm 0 m/s - -
1788578852 25.56° C 60% 1012.2 hPa 0 mm 0 m/s - -
1788578552 25.56° C 60% 1011.9 hPa 0 mm 3.13 m/s, 176° - -
1788578251 25° C 61% 1011.9 hPa 0 mm 0.89 m/s, 133° - -
1788577951 25.56° C 60% 1011.9 hPa 0 mm 1.79 m/s, 126° - -
1788577651 25° C 61% 1011.9 hPa 0 mm 7.15 m/s, 6° - -
1788577351 25.56° C 60% 1011.9 hPa 0 mm 1.79 m/s, 139° - -

* Rain latest hour (hover to see other rain measurements)
** Current wind speed in m/s (hover to see current wind gust speed)